User: anonymous   Login
Location: Bats
(43.6587°N, 0.4584°W)
Time: 03:53:25
(UTC+00:00)
Language:

Meteor 1-21 - Orbit

View from above orbital plane
View from above orbital plane
View from above satellite
View from above satellite

Ground track
Ground track

The orbit is defined by the following mean orbital elements,

1 07714U          26069.85585823 +.00000000 +00000-0 +31429-4 0 00002
2 07714  81.1952 325.5418 0028148 268.0622  91.7324 14.08463177    01
Epoch (UTC): 10 March 2026 20:32:26
Eccentricity: 0.0028148
inclination: 81.1952°
perigee height: 844 km
apogee height: 885 km
right ascension of ascending node: 325.5418°
argument of perigee: 268.0622°
revolutions per day: 14.08463177
mean anomaly at epoch: 91.7324°

The dashed part of the orbit path shows where the satellite is in the earth's shadow,  

DLR